Theta_e
295 295 295 294 294 294 295 295 295 294 294 294 294 293 292 291 287 286 286 287 288 291 292 290 293 296 296 296 298 298 298 299 300 300 300 299 299 299 300 301 301 301 301 301 301 300 300 301 301 302 303 304 304 304 303 303 303 303 303 305 307 307 306 306 308 309 312 319 330 324 323 323 322 322
296 296 294 294 293 294 294 293 295 295 294 294 293 293 293 293 289 288 286 286 290 290 293 293 292 295 295 296 297 297 297 300 299 299 299 298 298 299 300 300 299 299 300 300 299 299 300 300 301 302 302 302 302 302 302 302 302 302 303 304 304 303 304 305 307 309 310 313 320 323 321 322 321 321
296 294 293 293 293 293 293 293 293 294 295 294 293 293 293 293 292 290 289 286 290 292 290 293 294 294 295 296 296 296 297 298 299 298 298 297 299 301 300 299 299 300 300 300 300 301 300 299 300 300 301 301 302 302 302 301 301 302 303 302 301 302 303 304 306 308 310 312 316 325 323 322 322 323
295 294 293 294 293 293 293 293 293 293 294 294 294 293 293 292 292 292 290 288 287 292 292 292 294 294 295 296 295 295 296 297 299 297 297 297 300 298 298 298 299 299 299 299 299 299 299 298 299 300 301 301 301 301 301 300 300 301 300 300 300 301 302 303 305 308 309 310 312 319 324 322 323 323
295 295 293 293 294 293 293 293 293 293 293 293 293 293 293 292 292 291 290 288 288 291 294 293 293 295 295 294 295 294 295 295 296 297 297 297 297 297 297 297 298 299 299 299 299 299 298 298 300 301 300 300 301 300 299 300 300 299 300 299 300 300 301 303 304 305 307 308 310 311 319 321 321 321
295 294 293 293 294 294 292 293 292 292 292 292 292 292 292 291 292 292 290 289 288 288 291 292 293 293 294 292 294 294 294 294 296 295 295 296 296 296 296 296 297 298 299 299 299 299 298 298 299 299 298 298 299 299 299 298 298 299 299 297 297 299 300 302 303 304 304 306 307 308 310 319 320 321
294 295 295 294 294 295 292 292 292 292 292 292 291 292 292 291 292 292 292 290 288 288 289 291 291 292 293 292 292 293 294 295 295 294 294 295 296 296 297 296 297 298 298 298 298 298 299 298 298 298 298 298 298 298 298 298 298 298 298 297 298 299 300 300 301 302 303 304 305 306 308 315 320 320
294 294 293 294 294 294 292 291 292 292 292 292 292 292 292 292 292 292 292 292 290 289 288 290 290 291 291 292 293 293 294 294 294 294 294 295 295 296 296 296 297 297 298 298 298 298 299 298 298 298 298 298 298 298 298 298 298 298 297 298 298 298 299 299 299 300 300 302 303 304 305 308 320 323
294 295 294 293 293 293 292 292 292 292 291 292 292 292 292 292 292 292 292 291 291 289 288 289 291 292 291 292 292 293 291 292 293 294 293 294 294 295 296 296 297 298 299 298 298 298 298 298 298 298 298 298 298 298 298 298 298 298 298 298 298 298 298 299 299 300 300 301 302 304 305 307 316 325
295 295 294 294 294 292 292 292 292 292 292 292 293 293 293 292 292 291 291 292 291 290 289 289 289 291 290 290 291 292 292 291 291 291 293 294 294 294 294 295 296 297 297 297 297 297 297 298 298 298 298 298 298 298 298 297 297 297 298 298 298 298 298 298 299 299 299 300 301 302 304 305 309 322
294 294 294 295 293 293 292 292 293 293 293 294 294 294 293 292 291 291 291 291 290 290 289 289 290 289 291 291 289 291 293 292 291 290 290 290 293 293 293 292 295 296 296 297 297 297 297 298 298 297 297 297 298 298 297 297 297 297 297 297 296 296 296 296 297 298 299 300 301 301 301 301 303 314
295 294 294 293 294 293 293 294 296 296 295 295 294 294 293 292 292 291 291 290 290 289 289 288 288 289 289 290 291 292 292 290 291 292 290 288 289 290 292 293 293 294 295 295 296 297 297 297 297 297 297 297 297 297 297 297 297 298 298 297 297 297 297 297 297 298 299 299 299 299 299 301 303 305
294 295 295 294 293 301 299 299 298 298 297 295 293 293 293 293 292 291 291 290 289 289 289 288 289 288 288 289 289 289 289 288 288 290 291 289 290 290 290 292 294 294 293 294 294 295 296 295 295 296 295 296 297 297 297 297 297 297 297 297 297 297 298 298 298 298 298 299 300 300 301 302 303 302
294 294 294 297 301 301 299 298 296 295 295 295 295 294 293 293 292 291 290 290 290 289 288 287 287 287 287 288 289 288 289 291 291 290 290 288 289 290 289 291 293 295 294 293 292 293 295 295 294 295 294 296 297 296 296 296 296 296 295 296 296 296 296 296 297 297 298 298 299 299 300 300 301 302
295 295 295 294 296 297 295 297 296 293 293 293 293 293 294 294 293 292 290 290 290 289 288 288 288 287 287 288 289 289 289 291 290 289 289 289 289 287 286 285 290 296 294 292 291 292 295 295 293 294 294 295 295 296 295 296 296 296 296 296 296 296 297 297 297 297 297 297 297 298 298 299 300 302
295 295 294 293 293 294 296 298 294 294 293 292 292 292 292 292 292 292 292 290 289 289 288 287 288 288 287 288 289 289 290 289 289 290 290 289 288 287 287 287 287 292 295 292 291 290 294 295 294 293 294 295 295 295 295 295 295 295 296 296 296 296 296 297 297 297 297 297 297 297 298 298 299 300
294 294 295 294 294 293 296 296 293 293 293 293 292 292 293 292 292 290 289 291 292 292 290 288 288 288 288 288 289 290 290 291 289 289 288 289 289 288 288 288 289 291 295 292 290 289 292 294 293 291 293 294 295 295 295 295 295 296 296 296 296 296 296 296 297 297 297 297 297 298 298 299 299 300
292 292 293 292 293 293 293 294 293 293 292 291 291 291 291 291 292 291 291 290 290 291 291 290 288 290 290 289 290 292 292 290 289 288 288 289 288 289 289 291 291 293 295 291 290 288 290 292 292 290 292 294 294 294 294 294 295 295 295 295 295 295 295 296 296 296 296 296 296 297 298 299 299 300
292 292 292 292 292 292 293 294 294 293 291 290 290 290 290 290 290 291 291 291 292 292 292 291 291 291 291 291 291 292 292 292 292 291 290 290 290 291 292 292 292 292 294 293 291 286 289 292 290 290 291 293 293 294 294 294 294 295 295 295 295 295 295 295 295 295 296 296 296 296 296 297 298 299
291 291 292 292 293 293 292 293 291 291 292 291 290 289 290 290 290 290 292 291 291 292 292 292 292 292 292 291 292 292 292 292 293 293 293 293 292 290 288 287 290 290 293 293 290 288 288 291 289 289 291 292 291 293 294 294 295 295 295 295 295 295 295 295 295 295 295 295 296 296 296 296 296 297
291 291 292 294 294 293 292 292 290 290 291 290 290 289 289 289 289 289 291 291 290 290 290 290 290 290 290 290 290 290 291 292 293 292 290 289 289 287 285 286 288 288 291 292 292 289 286 289 289 288 290 291 290 291 293 294 294 294 294 295 295 295 295 295 295 295 295 295 295 296 296 296 297 298
290 291 295 296 294 292 292 291 289 289 291 290 289 289 288 288 288 289 290 290 291 291 290 290 290 290 290 290 291 291 291 291 292 291 287 289 289 286 287 285 287 288 290 291 292 288 287 289 289 287 289 290 291 292 293 294 294 295 295 295 295 295 295 294 294 294 295 296 296 296 296 297 298 301
289 289 291 293 293 292 292 289 289 289 291 291 290 289 288 287 287 288 289 289 289 290 290 290 291 290 291 292 292 293 291 291 294 293 291 291 289 286 286 287 286 285 287 290 292 286 287 287 288 288 286 285 289 292 293 294 296 297 298 299 299 297 296 295 294 294 295 296 296 296 296 297 297 303
289 289 289 292 290 289 289 289 289 289 289 291 291 290 289 288 287 290 289 290 290 289 288 289 290 290 291 291 292 292 292 293 294 292 292 292 291 288 287 287 286 284 285 290 292 287 287 288 286 289 287 284 283 290 293 292 294 295 296 296 297 297 298 297 296 295 295 295 296 296 297 297 298 304
287 288 289 290 291 289 289 289 289 289 289 290 292 291 289 289 290 290 289 289 289 288 289 289 289 289 290 290 290 291 291 291 292 292 292 292 292 290 288 286 286 286 287 290 291 288 285 287 286 287 287 287 287 287 290 292 294 295 297 298 298 300 302 302 301 302 297 295 295 296 296 297 298 303
288 288 288 289 290 289 289 289 289 289 289 289 293 291 288 288 288 290 290 289 288 288 288 287 288 288 288 288 289 290 290 290 291 290 291 292 292 293 292 289 286 285 286 290 290 288 286 285 286 285 286 286 286 288 288 290 293 295 298 299 300 301 303 302 303 304 304 303 301 298 299 297 298 299
289 288 289 289 290 289 289 289 289 289 289 290 291 288 288 288 288 289 288 288 287 287 287 287 287 287 287 287 287 288 288 289 290 290 290 291 292 293 293 293 292 290 290 291 291 288 286 286 288 286 285 286 285 286 287 288 291 296 297 299 300 302 303 304 304 304 304 303 303 298 297 296 297 298
288 288 289 290 289 289 289 288 288 288 289 289 288 288 288 288 289 288 287 286 286 287 286 286 286 286 287 287 287 288 288 289 290 290 290 291 292 292 292 292 292 293 292 290 288 288 287 286 287 288 288 287 285 285 286 290 292 293 294 297 299 300 302 303 304 304 304 303 303 301 301 300 300 300
291 289 289 288 288 289 288 288 288 288 289 288 288 288 287 290 288 287 286 286 286 286 285 285 286 286 287 287 288 289 289 290 291 290 290 291 292 293 293 292 292 292 292 290 288 287 287 287 286 287 288 288 287 288 289 288 291 292 294 294 294 298 301 304 304 304 302 302 302 301 301 301 300 301
289 288 288 289 288 288 289 290 290 289 290 288 288 288 289 288 287 286 286 286 286 285 285 285 285 285 286 287 288 289 289 289 289 289 289 290 291 291 290 289 290 291 291 291 289 288 288 288 287 286 287 287 287 286 287 287 288 291 294 294 296 298 300 303 303 303 301 301 302 302 303 303 302 301
289 289 290 289 288 288 288 288 288 287 288 288 289 288 287 287 287 287 286 286 286 285 285 285 285 286 287 288 288 288 287 288 289 289 289 289 289 290 289 288 288 288 290 291 291 289 289 289 289 287 285 285 286 286 286 287 287 290 292 293 296 296 300 302 301 301 302 302 302 302 303 303 303 301
290 290 289 288 288 288 288 288 288 288 288 287 287 287 287 287 287 287 287 287 287 286 285 285 286 286 287 286 286 287 287 287 288 289 289 289 289 289 289 287 286 287 288 289 289 290 289 289 289 289 286 285 284 285 287 287 286 288 289 292 293 294 296 299 301 301 302 302 301 300 301 302 302 302
288 288 289 288 288 288 285 286 287 287 287 287 287 286 287 287 286 286 286 285 285 285 285 285 285 285 285 286 286 286 286 287 287 289 288 290 289 289 289 287 287 286 286 286 287 288 288 288 289 289 289 286 286 286 285 284 285 287 288 289 291 292 293 295 298 301 302 302 300 301 301 302 303 303
287 286 286 287 286 286 286 286 285 286 286 286 286 287 286 286 286 287 286 286 285 285 285 285 285 285 285 285 285 285 285 286 287 288 288 288 289 288 288 287 287 287 287 286 287 287 288 288 288 289 290 290 290 288 286 284 284 285 288 289 289 290 291 292 294 297 301 301 301 299 299 300 302 304
284 284 285 286 286 285 286 284 285 285 285 285 285 286 286 286 285 285 286 286 284 284 284 284 285 285 285 284 285 285 285 285 286 287 288 289 289 288 288 288 287 287 287 286 286 287 287 287 287 286 287 287 288 289 291 288 285 284 286 288 288 288 289 291 292 292 295 296 299 297 297 298 298 300
285 283 284 285 286 286 285 285 284 284 285 285 286 285 284 286 286 285 285 285 284 284 284 284 284 284 284 285 284 285 285 284 285 286 286 287 287 288 288 288 288 288 288 287 287 288 287 287 286 285 283 284 283 282 284 289 289 286 284 285 288 287 288 291 291 292 291 292 293 293 290 291 292 293
286 285 285 286 287 286 285 287 287 286 286 286 286 286 285 285 287 287 286 284 284 284 284 284 284 284 284 284 284 284 284 284 284 285 285 286 287 287 287 287 287 288 287 288 288 288 288 287 286 285 284 282 281 280 282 286 288 289 286 284 285 287 287 289 289 289 290 290 290 290 289 288 288 290
285 287 286 286 286 287 286 286 286 285 286 286 286 286 286 287 287 286 286 285 285 284 284 284 284 284 284 284 284 284 284 285 285 285 285 285 285 286 286 286 287 287 288 288 288 288 288 287 286 285 284 282 281 281 281 285 285 286 289 287 284 285 287 288 287 287 288 290 290 290 291 288 288 290
287 287 287 287 287 287 287 287 286 286 287 287 287 287 287 287 287 287 286 285 285 284 285 284 284 284 284 284 284 283 283 284 284 284 284 284 285 285 286 286 286 287 287 287 288 288 288 286 286 285 285 284 282 282 284 283 283 286 288 289 287 285 285 286 287 289 288 288 289 291 291 293 293 290
287 286 287 286 287 287 287 287 287 287 286 287 287 287 287 286 287 287 286 285 285 285 284 284 283 284 284 284 283 283 284 284 284 284 284 284 284 285 285 286 287 286 286 286 286 287 286 286 286 286 286 286 287 287 286 286 287 288 287 288 289 287 285 285 285 286 287 289 290 289 288 289 288 290
286 286 287 287 287 287 287 287 287 287 287 287 287 287 287 287 287 287 286 286 284 284 284 284 283 283 283 283 283 282 282 283 284 284 284 284 284 284 284 284 286 286 286 285 285 286 286 287 288 286 288 289 289 290 287 285 284 285 285 287 288 289 288 288 286 285 284 287 289 288 287 287 287 287
288 288 288 288 288 288 288 288 288 287 287 287 287 287 287 286 286 285 285 283 284 282 283 283 283 282 283 283 283 282 282 283 283 283 283 283 283 283 284 285 285 286 285 285 285 286 289 290 290 290 290 289 288 286 284 284 284 285 286 287 287 288 288 288 288 288 287 286 285 285 286 288 288 285
287 288 288 288 288 288 288 287 287 287 287 288 287 288 286 286 285 285 285 285 284 283 284 284 283 283 283 283 283 283 283 283 283 283 283 283 283 283 283 284 284 286 286 286 287 288 288 290 289 289 289 288 287 286 284 285 285 286 286 286 286 288 288 288 288 287 287 287 287 286 286 286 286 282
288 288 288 288 288 288 288 287 287 287 287 287 287 287 286 285 286 286 285 285 284 285 284 283 283 283 283 283 283 284 284 284 283 282 283 283 283 283 283 283 284 285 287 286 286 287 288 288 288 288 287 286 287 286 285 285 285 286 286 287 287 287 287 288 288 288 287 287 287 287 288 287 287 286
288 288 288 288 288 288 288 288 287 288 287 287 287 286 285 285 285 285 285 284 283 283 282 283 284 284 283 283 283 284 284 284 283 283 283 284 283 283 283 283 283 285 286 286 285 286 286 287 288 288 288 287 287 286 286 286 285 286 286 286 286 287 287 287 286 286 285 285 286 287 287 287 287 287
Wind_Speed
6 6 7 6 5 4 4 4 3 3 3 3 3 3 5 3 3 6 5 7 7 8 9 9 6 9 11 10 8 9 9 12 15 11 9 8 8 12 18 19 19 18 18 18 17 18 20 22 23 23 24 24 24 24 23 22 21 21 21 20 19 20 21 19 16 18 15 20 31 26 26 24 24 24
5 5 5 5 5 4 4 3 2 3 3 3 3 3 2 2 3 2 5 7 4 7 6 5 8 8 11 10 10 9 10 15 17 12 10 9 9 15 18 18 18 18 18 18 17 17 18 20 23 25 25 25 24 24 23 22 21 21 22 21 18 17 19 19 19 18 18 17 19 27 24 24 24 25
5 6 6 5 5 3 4 3 3 3 4 4 3 3 1 1 0 2 2 6 3 3 10 6 7 10 11 10 10 10 10 12 16 13 10 11 15 21 16 17 17 18 19 18 19 20 19 19 21 23 25 26 25 24 24 24 23 22 22 21 19 18 18 18 18 19 19 19 19 22 24 23 24 25
4 5 6 5 4 3 4 4 5 5 4 3 3 3 3 2 1 2 3 5 10 7 8 9 10 10 10 10 11 10 10 10 17 12 10 13 18 12 10 13 16 17 18 19 19 19 19 19 20 21 24 26 26 25 24 23 23 22 20 19 19 18 18 18 18 17 18 19 19 18 24 24 23 25
4 4 5 4 4 3 5 5 5 5 5 4 3 3 3 4 2 1 3 6 10 7 4 8 9 9 9 10 9 12 10 11 11 12 11 12 10 11 10 10 14 17 18 19 19 20 20 20 22 23 24 25 25 25 21 20 20 18 18 17 19 19 18 19 18 16 17 18 19 19 17 24 24 25
3 3 5 4 5 4 5 5 5 4 4 4 5 4 3 4 6 3 3 5 6 12 8 8 7 9 7 11 8 9 12 12 11 13 13 10 11 10 11 11 11 16 17 18 20 21 21 21 21 21 21 22 22 21 21 20 19 19 17 16 16 16 18 18 18 18 17 18 19 18 18 21 26 27
3 4 4 4 4 4 6 5 5 4 4 3 4 5 4 5 6 6 3 5 7 9 10 8 11 8 8 8 13 12 10 11 12 13 12 11 10 10 10 11 10 15 18 20 20 21 21 22 22 21 20 21 22 22 21 20 20 19 18 16 16 17 18 17 18 19 20 19 19 18 18 18 27 27
3 3 4 3 4 4 5 5 5 4 4 4 4 6 5 5 6 6 6 5 6 6 11 9 9 10 10 10 10 10 10 10 11 10 12 11 12 12 11 10 11 14 20 21 22 22 22 22 21 21 21 21 22 22 21 20 19 19 18 17 16 17 18 17 16 18 20 20 19 18 17 19 23 29
4 2 2 3 3 4 5 5 5 5 7 6 5 6 5 5 6 6 6 7 6 8 10 11 7 8 10 9 11 11 12 12 10 10 11 12 13 13 11 11 10 14 20 22 21 21 21 20 20 21 20 21 21 21 21 20 20 20 20 19 18 17 18 20 19 19 20 19 18 18 19 18 21 29
3 2 1 2 3 3 4 5 6 6 7 6 7 8 7 6 6 7 7 6 7 7 9 9 13 8 9 11 8 10 11 12 14 13 11 10 11 12 13 11 9 9 8 9 9 13 15 16 19 19 20 20 20 21 21 21 21 20 21 21 20 18 18 19 18 17 18 19 18 19 18 17 19 26
3 2 1 2 2 3 4 5 6 6 7 6 8 6 7 7 7 7 7 7 8 8 9 9 8 10 9 7 12 11 10 10 11 15 17 15 9 9 11 16 13 9 12 15 16 15 16 19 19 19 20 21 21 22 22 22 22 21 21 21 20 18 18 19 19 18 18 19 18 17 17 16 15 20
3 3 2 2 3 3 4 4 6 6 6 6 7 7 6 6 7 7 7 7 7 8 8 8 10 9 11 11 8 9 10 10 8 6 12 17 19 17 13 12 17 15 14 15 12 11 13 15 17 20 20 22 22 23 22 23 24 23 21 20 19 18 17 18 19 17 17 18 18 17 16 15 14 16
2 3 3 3 4 4 7 8 7 7 7 6 6 7 6 7 6 7 6 7 7 7 8 10 8 9 11 10 11 12 11 11 13 14 12 15 15 16 17 15 13 15 19 17 13 13 11 14 16 15 15 14 17 18 19 19 22 22 20 19 18 17 16 17 18 18 17 18 18 17 15 14 14 14
2 4 4 4 6 8 7 7 9 11 12 12 8 8 7 6 6 6 7 7 7 7 9 10 11 12 11 12 11 12 12 11 12 13 14 16 16 16 17 15 11 13 12 13 15 14 15 16 16 16 16 12 12 12 13 12 14 16 16 17 17 17 17 17 18 19 18 17 18 18 17 15 14 14
3 4 4 4 5 5 6 7 9 11 12 13 13 14 13 11 7 7 7 6 6 8 8 9 10 10 12 13 12 11 13 11 12 15 14 15 15 14 17 22 14 5 12 16 18 18 13 13 17 17 15 12 11 11 12 15 17 19 19 18 18 18 18 17 18 19 18 17 18 18 17 16 15 15
4 4 3 3 3 5 6 6 7 9 11 13 14 14 13 13 13 9 7 8 8 8 9 10 10 11 11 12 12 13 12 13 13 13 13 13 14 17 18 16 18 16 17 19 18 19 13 11 14 16 16 12 10 11 14 17 18 19 19 19 19 19 18 17 18 18 18 17 17 18 17 16 15 14
4 3 2 5 5 5 8 6 7 7 9 11 13 13 11 12 13 12 12 10 8 8 8 9 11 10 11 13 13 14 15 14 15 15 14 14 14 14 15 16 17 21 15 14 14 16 15 11 13 16 16 14 12 12 14 17 18 19 19 19 19 18 18 18 18 18 18 17 17 17 17 16 15 15
2 2 2 3 5 6 6 6 7 7 7 7 7 8 8 8 10 10 11 11 11 9 7 8 10 12 10 12 14 16 14 15 15 15 16 15 16 16 18 21 21 19 13 14 15 16 15 13 15 17 16 15 14 12 14 17 17 18 19 19 18 18 18 18 18 18 18 17 17 17 17 16 15 15
4 3 1 1 4 5 6 4 6 6 7 7 6 7 8 8 9 8 8 7 6 7 6 7 9 11 11 11 14 14 13 13 12 12 15 17 16 17 19 17 15 15 11 11 11 16 18 14 15 16 16 14 15 14 16 17 17 18 19 19 19 18 18 18 18 18 18 17 17 17 16 16 15 15
2 2 1 3 4 5 6 6 8 7 7 5 6 8 8 8 8 8 7 11 10 9 8 8 9 10 13 17 15 15 14 13 12 14 12 11 13 17 16 14 13 11 11 12 13 15 17 15 13 15 15 14 15 14 13 15 16 17 18 18 18 18 18 18 18 18 18 18 17 17 16 15 15 14
2 2 2 2 3 5 6 7 9 9 7 5 6 7 9 8 8 7 7 10 13 14 15 15 16 18 19 20 21 22 24 18 16 12 14 16 15 15 18 15 14 13 12 12 11 12 16 13 13 15 14 15 15 14 13 12 14 15 17 18 18 18 19 18 18 18 18 18 17 16 16 15 14 14
2 2 3 3 3 4 6 9 10 8 6 5 6 7 9 10 9 8 7 6 8 12 14 15 15 16 18 19 20 20 21 22 17 12 15 17 15 15 15 17 17 14 11 9 8 11 14 14 12 13 13 14 11 12 10 10 10 12 12 15 17 18 18 18 17 18 18 18 17 17 16 15 14 10
2 2 1 3 3 4 7 10 9 8 5 4 5 6 7 9 10 9 9 9 10 9 9 9 10 11 13 12 11 14 21 21 17 13 13 13 13 16 15 16 16 16 8 6 11 14 13 14 12 9 11 12 12 8 8 7 6 5 6 7 8 13 16 17 17 17 18 18 18 18 17 16 14 8
5 5 5 4 6 8 9 10 10 10 6 4 5 4 6 8 11 8 9 9 9 10 9 9 10 10 10 11 11 11 12 13 13 15 12 12 12 15 19 15 14 13 14 14 15 11 11 10 12 9 8 10 10 6 7 11 11 10 8 8 8 10 11 13 13 16 16 17 18 18 18 17 15 9
3 5 6 6 7 9 11 11 11 10 9 6 4 5 5 6 9 11 7 10 12 8 9 9 9 9 9 9 9 10 10 11 12 13 14 12 12 14 15 18 16 13 13 14 20 13 9 10 13 11 9 7 11 13 12 11 11 10 8 7 7 7 7 8 8 8 13 17 17 19 19 18 19 13
3 4 5 5 8 11 11 12 11 10 8 8 4 7 9 13 13 10 7 7 7 7 7 8 9 9 9 9 10 10 11 12 12 14 14 14 13 13 12 14 19 18 17 16 19 14 12 10 11 12 11 10 12 10 12 12 10 7 6 6 6 7 6 7 6 7 9 9 10 14 15 19 18 20
5 4 4 5 8 10 11 11 10 9 9 5 5 10 11 12 14 10 6 7 6 7 7 8 9 10 9 10 11 11 12 12 12 13 14 15 15 14 13 13 12 14 14 12 14 14 10 8 11 13 14 10 11 10 9 10 10 7 8 6 6 6 6 6 7 8 9 9 9 14 15 16 19 20
4 5 5 6 10 12 12 11 9 9 7 5 9 10 11 12 10 6 7 6 7 7 7 8 9 10 10 9 10 11 12 13 12 13 14 15 15 14 13 14 13 10 12 11 13 12 10 10 11 12 13 10 6 7 9 8 8 8 10 11 8 7 7 6 7 7 9 9 8 10 9 9 9 11
4 5 8 10 11 11 11 9 8 5 6 8 10 10 10 9 5 6 6 7 7 8 8 8 8 8 9 10 10 11 11 12 11 12 13 13 12 12 12 11 10 11 11 10 12 11 13 9 11 12 10 10 8 6 8 9 8 9 9 10 10 6 5 5 7 8 8 7 8 9 10 9 9 11
7 7 8 10 10 9 6 4 5 6 6 9 10 9 8 5 5 5 6 7 7 8 8 8 9 9 9 10 11 11 10 11 11 11 13 13 14 16 15 16 15 14 12 12 12 13 13 13 11 9 10 12 12 11 10 9 7 7 8 8 9 9 6 5 5 6 7 8 8 8 8 9 9 10
3 4 4 4 6 6 8 6 5 6 7 7 6 6 5 4 4 5 4 5 6 6 7 7 8 8 8 9 10 11 11 11 10 11 12 11 14 15 14 13 14 16 15 15 13 14 15 14 13 11 9 10 12 11 10 9 7 8 8 8 8 7 4 3 3 5 6 7 7 7 7 6 6 7
3 4 3 4 2 3 3 4 4 5 5 5 6 6 5 5 5 5 7 6 4 5 5 6 7 7 8 9 10 11 10 10 10 11 11 11 14 14 14 14 15 14 14 15 14 15 13 14 14 11 7 6 10 15 10 8 11 11 9 10 9 8 9 7 4 5 5 7 7 6 6 7 6 6
2 3 4 5 6 5 4 6 5 6 5 7 6 7 6 5 5 5 5 7 8 7 7 8 8 9 8 9 9 9 11 11 11 11 10 11 10 13 12 11 11 13 14 14 13 14 13 13 14 12 9 4 4 13 14 14 12 10 9 9 6 8 10 8 7 4 5 6 8 8 7 5 4 4
1 3 3 4 3 5 5 5 5 5 6 6 7 8 5 6 5 5 5 6 6 6 6 6 7 8 8 9 9 9 10 11 11 11 12 11 11 11 12 14 14 12 12 13 12 13 13 13 12 10 10 8 2 10 16 12 11 11 8 8 12 11 9 10 10 9 6 5 6 8 6 5 4 3
0 3 4 4 3 3 4 3 5 4 4 4 4 7 5 6 5 4 5 6 5 6 6 7 6 6 7 8 9 9 10 10 12 10 9 9 10 11 11 11 13 14 13 14 15 14 13 14 12 12 10 9 3 3 18 21 17 16 12 14 12 11 12 11 10 10 9 9 6 7 7 6 6 5
4 3 3 4 4 4 4 5 6 5 6 5 5 4 5 6 4 4 4 5 5 5 6 7 7 7 7 8 8 8 9 9 10 11 10 11 11 10 11 11 11 13 13 13 14 14 13 13 15 13 14 14 14 16 18 21 22 17 14 12 13 12 11 11 11 11 11 11 9 6 5 5 6 7
4 3 4 5 6 4 5 7 6 7 7 6 6 5 4 5 5 7 6 4 4 4 5 5 5 6 7 7 8 7 7 8 9 9 10 11 10 10 9 12 13 12 12 11 12 14 13 16 17 16 16 15 16 12 12 12 17 25 17 13 12 13 11 10 11 12 11 10 10 9 6 5 5 7
5 5 5 5 6 6 6 6 6 6 7 6 6 6 6 6 7 7 4 4 4 4 4 5 6 6 6 5 7 9 8 7 7 8 8 10 10 10 10 10 9 11 11 11 11 13 11 12 15 14 13 14 13 15 14 13 14 20 29 21 14 12 11 10 11 10 9 8 8 7 5 7 8 6
5 6 6 6 6 5 7 7 5 7 8 7 6 6 6 6 6 6 5 4 4 3 4 5 5 5 6 7 6 7 8 8 8 8 9 9 9 10 10 10 10 10 10 12 11 12 12 14 14 14 13 13 13 11 9 11 14 11 18 30 19 13 14 10 9 9 9 8 8 5 6 2 2 10
6 6 6 6 7 6 7 6 7 6 6 7 7 6 5 4 6 6 4 5 4 3 3 4 5 6 6 6 6 7 7 8 7 7 7 8 8 8 8 9 8 9 9 11 12 10 10 12 12 12 12 11 8 7 6 3 3 8 11 20 33 25 16 11 11 8 7 8 6 5 6 7 8 7
6 6 7 6 7 7 7 7 7 6 7 7 7 6 5 5 6 4 4 4 2 3 3 4 4 5 5 5 5 5 7 8 7 7 7 8 8 8 10 10 8 9 10 10 10 10 11 10 12 13 10 7 8 7 3 10 16 16 15 13 19 27 31 27 16 12 9 8 6 6 7 8 7 8
6 7 7 6 7 8 6 7 7 6 7 6 6 7 6 4 4 5 6 4 4 3 3 3 3 4 4 4 4 4 5 7 8 8 7 8 9 9 11 9 9 10 10 10 10 9 9 9 10 10 11 8 10 16 17 14 12 13 10 9 10 16 23 28 31 27 18 12 8 5 5 4 4 9
6 7 8 7 5 6 6 7 7 6 7 6 7 7 4 4 3 4 4 4 4 3 3 3 2 2 3 3 3 3 4 6 7 7 7 7 7 8 8 7 7 7 7 8 7 6 7 9 10 9 8 10 12 13 13 12 11 11 12 14 11 10 12 19 24 27 28 28 25 17 11 6 4 6
8 7 8 7 7 7 7 7 7 6 6 6 5 4 4 4 5 5 4 4 4 4 3 3 3 3 3 3 3 3 2 4 5 6 7 7 7 6 6 7 7 6 6 7 8 9 8 8 7 7 10 12 10 12 13 12 12 11 12 9 8 11 11 9 10 14 20 27 28 24 25 23 20 16
7 7 7 7 7 7 7 7 6 6 6 5 4 5 4 4 5 5 4 4 4 4 4 3 3 3 2 2 2 4 4 4 4 5 5 5 5 6 6 6 6 7 7 6 7 8 9 8 8 8 8 9 8 8 7 9 10 10 12 12 12 9 8 8 13 15 14 12 21 27 25 24 23 23
Wind_Direction
77 74 71 80 80 66 58 57 61 59 59 62 73 67 67 64 31 344 326 321 322 328 347 338 322 332 324 325 324 318 312 311 316 312 305 301 295 296 298 299 306 308 305 303 302 302 304 307 309 310 311 311 310 310 309 309 311 310 313 313 312 319 313 317 310 312 306 284 218 207 207 196 191 192
80 75 69 67 74 72 66 68 60 57 53 48 39 59 65 83 22 315 316 304 292 293 309 305 304 316 316 314 315 316 306 308 313 310 307 302 292 294 298 301 301 300 299 299 297 295 297 301 302 305 307 307 306 304 305 307 307 308 308 308 314 308 310 305 309 306 307 306 256 206 208 198 191 190
80 76 72 61 70 57 71 63 49 42 43 27 30 9 38 16 223 281 268 307 258 297 308 293 283 300 304 305 306 304 303 307 311 308 304 298 298 302 300 293 291 293 296 294 295 296 297 295 296 299 300 302 301 302 303 303 305 304 304 307 304 304 298 301 299 304 308 309 303 228 201 203 193 192
80 82 73 61 61 37 52 42 29 29 26 29 8 357 330 318 235 241 257 265 284 303 289 289 295 295 298 301 300 297 297 299 305 302 295 297 301 298 288 288 284 288 290 294 291 293 292 293 294 293 297 300 301 299 299 299 299 299 298 297 297 295 297 295 294 298 304 309 308 283 209 203 198 195
85 82 79 60 49 40 45 29 23 16 7 358 356 329 327 319 312 268 282 295 297 283 261 292 299 301 303 298 295 300 301 301 303 300 295 296 294 291 291 289 286 286 289 288 290 290 292 292 292 295 296 296 294 293 292 291 292 291 289 289 290 294 294 295 292 294 302 305 305 306 256 204 200 198
74 81 73 43 33 34 42 23 20 3 351 349 330 335 329 321 322 326 310 292 299 303 310 299 292 293 300 296 295 301 307 303 300 299 299 293 290 292 294 294 288 290 284 288 288 290 290 290 290 289 289 289 288 288 286 288 286 286 283 282 284 285 290 292 291 295 299 300 302 300 299 225 201 197
115 70 54 31 24 19 24 12 358 354 344 327 323 322 329 329 319 319 305 310 305 299 298 300 303 305 307 297 305 306 295 294 296 295 293 296 295 290 288 290 287 287 289 288 289 289 289 289 288 287 285 285 286 284 284 282 283 282 281 277 276 280 285 285 288 290 294 295 293 295 297 266 205 197
118 121 58 13 20 27 20 359 347 341 327 329 326 322 329 324 320 316 322 305 291 295 304 308 311 308 310 304 296 294 292 290 295 291 292 288 288 290 291 285 286 291 290 292 293 292 289 285 285 284 283 282 281 282 280 280 278 279 278 275 272 274 276 278 278 283 286 285 285 287 286 288 226 196
136 147 88 360 26 33 7 340 340 329 328 319 323 327 324 329 325 320 312 301 290 292 296 298 297 301 295 291 295 300 305 301 288 286 286 296 293 293 288 289 280 277 287 289 289 287 284 283 281 281 280 277 277 277 278 276 276 275 276 275 271 268 272 274 274 277 279 280 278 278 283 282 258 206
158 175 240 308 26 24 342 323 319 320 321 315 323 331 330 334 325 310 302 297 297 291 286 294 308 307 309 309 297 302 304 305 308 299 285 273 282 292 295 281 276 285 279 293 283 281 281 277 277 277 277 277 275 275 275 275 274 273 273 273 270 266 265 269 269 267 270 272 271 273 276 275 276 226
184 216 233 310 352 310 296 315 318 318 321 327 324 330 333 325 315 305 303 307 303 298 298 299 288 299 301 298 306 310 301 295 296 307 310 307 285 269 285 299 294 277 288 287 275 280 283 286 286 286 281 277 275 274 273 274 273 272 271 269 267 262 259 262 265 264 264 266 268 271 271 271 270 251
205 234 267 279 289 294 289 293 316 330 329 335 330 331 329 317 310 308 307 306 306 305 306 304 312 315 307 308 292 293 305 303 290 276 304 306 313 312 302 294 302 304 308 309 305 292 281 282 281 278 275 269 267 268 270 270 270 269 268 266 264 261 256 256 260 259 259 264 265 265 264 263 262 256
278 274 279 280 281 315 355 358 349 344 347 350 335 324 321 310 311 304 304 307 307 307 308 307 312 309 311 309 314 319 322 321 314 315 309 300 298 302 303 305 304 306 308 312 304 303 292 291 292 286 285 280 269 268 261 267 269 268 266 264 264 262 258 255 258 260 258 260 261 262 262 261 261 258
279 262 269 292 322 348 347 347 351 352 348 344 338 320 313 308 304 306 311 312 314 313 314 319 318 320 315 315 317 313 307 302 304 306 308 306 306 304 303 299 303 302 302 304 304 302 301 292 290 291 286 274 266 274 276 269 265 265 261 259 259 258 255 253 255 258 258 257 259 261 260 260 258 254
228 252 281 300 332 337 340 341 353 349 347 342 333 325 320 315 311 315 314 304 315 314 316 310 313 308 309 308 313 307 306 311 316 312 309 304 308 311 317 316 312 305 307 308 308 305 295 287 291 293 287 275 271 267 264 264 261 262 261 260 258 257 254 251 251 254 255 253 255 256 256 256 255 252
197 228 277 330 334 320 325 349 353 346 342 335 326 320 319 316 316 310 309 317 316 316 315 315 310 312 304 308 311 308 313 316 312 305 299 301 307 312 313 309 309 314 314 308 305 301 294 279 285 292 291 277 270 265 267 264 261 260 260 259 257 255 253 251 249 251 252 251 251 252 252 251 251 246
201 204 7 347 326 321 334 355 354 347 335 324 317 316 316 315 316 318 318 308 294 295 303 303 307 305 309 311 307 309 310 310 305 308 310 308 306 305 304 306 308 309 304 301 296 296 296 285 288 296 295 290 288 278 269 263 262 262 261 259 257 254 252 249 248 248 250 247 247 248 248 246 245 242
112 88 95 336 319 323 331 346 354 343 324 314 313 316 314 310 311 318 316 312 302 302 298 303 300 299 308 300 299 303 307 313 314 316 312 314 311 310 305 304 301 300 301 301 300 295 295 299 302 299 297 295 290 282 272 266 262 261 260 258 256 254 251 249 246 246 246 244 242 244 245 243 240 238
102 112 143 256 289 303 317 337 354 331 312 308 302 306 309 309 312 307 310 306 312 308 302 293 283 293 297 294 298 299 302 302 301 303 301 305 303 296 298 296 290 289 284 289 296 296 302 304 304 302 300 300 296 293 283 266 259 258 258 257 256 253 251 248 245 243 243 241 238 238 239 239 237 233
61 95 27 335 316 319 313 329 339 324 307 295 304 309 305 308 308 307 294 303 307 306 304 300 301 301 300 301 300 302 305 304 301 302 296 297 301 308 302 297 302 304 309 303 301 297 300 307 306 302 301 298 294 291 286 276 262 258 256 256 254 251 250 246 243 241 240 238 235 234 233 232 233 231
12 350 283 266 323 317 315 322 328 319 315 301 309 308 309 305 309 307 315 320 317 314 309 306 304 303 303 305 306 307 309 310 312 309 317 321 322 313 312 311 316 315 314 306 301 303 300 308 308 304 300 299 293 289 284 280 271 259 255 254 254 252 250 245 241 238 236 235 232 228 228 226 225 225
357 308 341 351 334 327 313 321 322 315 316 311 307 308 312 318 318 313 321 315 315 311 309 308 307 303 303 308 308 309 313 316 320 326 323 318 316 310 310 311 312 308 302 296 320 303 300 307 311 306 300 294 280 283 277 276 272 263 257 252 254 254 250 245 238 234 233 231 228 225 222 220 218 217
351 331 319 338 349 327 311 316 313 319 316 296 300 303 308 312 316 319 324 320 318 323 324 318 320 317 317 310 310 312 316 318 319 322 312 314 317 315 314 312 313 318 327 307 326 313 312 316 308 307 307 300 291 273 272 270 273 275 266 262 258 245 245 244 236 231 230 228 224 221 216 212 203 209
349 351 340 333 348 334 325 324 322 316 315 291 297 306 313 307 311 317 317 310 317 316 317 309 315 311 310 311 312 316 320 323 321 323 319 318 322 319 317 310 309 304 307 313 325 313 304 300 301 305 288 295 305 317 294 293 288 282 274 271 270 261 248 240 237 230 227 224 220 216 212 206 195 200
355 330 328 317 324 326 321 318 313 309 309 312 298 310 286 295 295 307 305 312 318 311 313 313 311 310 312 311 313 314 317 321 323 324 323 324 326 324 321 319 314 303 304 307 321 316 311 308 300 294 282 271 276 290 292 293 287 290 285 265 270 259 252 249 237 235 222 220 215 209 206 201 191 196
322 289 300 307 312 313 311 307 304 304 306 311 318 304 307 306 316 322 308 304 313 315 316 318 315 316 320 319 321 319 321 323 324 327 327 328 328 327 323 318 316 314 310 313 318 314 310 304 304 297 292 286 287 281 292 295 291 291 283 266 259 259 240 250 228 224 227 213 212 205 203 194 187 198
293 296 287 285 293 300 302 302 301 300 302 311 306 312 317 318 320 321 319 316 320 321 323 324 324 320 320 326 324 323 323 322 323 325 328 328 327 326 325 321 314 305 304 311 313 312 309 299 308 311 306 289 281 287 281 288 298 320 305 282 266 261 249 239 228 225 216 204 206 192 191 186 189 196
264 290 295 293 302 302 301 298 296 293 295 299 309 317 316 320 324 321 322 329 328 318 323 329 328 325 322 320 321 324 322 319 321 323 326 327 326 326 325 325 322 319 325 316 316 314 319 323 320 320 320 318 286 285 289 282 278 296 301 299 290 270 266 243 235 210 197 193 184 175 176 181 192 192
253 266 282 292 294 295 293 292 290 292 306 317 315 313 317 322 327 325 327 327 324 333 335 328 317 313 317 314 304 306 309 308 310 325 329 326 322 322 325 326 330 340 344 329 324 327 342 334 326 325 337 355 341 309 301 301 306 301 299 301 302 294 286 263 218 184 180 171 176 167 174 169 169 184
271 279 281 282 287 283 281 308 331 320 308 312 307 310 319 319 312 323 325 325 334 329 323 323 324 317 313 316 315 307 307 316 324 331 334 333 340 344 345 342 345 347 353 348 341 340 349 347 342 326 341 4 10 353 340 329 322 301 303 303 286 280 274 217 173 158 156 166 164 167 172 177 178 169
277 264 257 276 286 301 299 289 280 285 306 314 318 323 317 305 305 305 313 310 307 308 311 315 313 312 311 305 310 324 328 323 325 331 331 333 339 343 344 341 342 348 349 354 356 357 354 351 347 348 340 352 2 359 333 331 320 329 336 328 342 22 6 78 93 133 143 143 145 150 154 156 160 186
293 306 319 319 329 316 318 313 326 331 326 307 305 308 309 303 304 300 295 289 278 309 312 298 300 307 319 324 326 323 325 325 324 331 332 337 338 343 344 348 353 344 343 350 354 356 353 352 350 346 341 329 353 355 353 2 8 358 354 351 5 9 15 21 61 84 103 109 109 122 137 149 151 162
351 3 338 353 341 359 339 321 311 307 318 312 303 298 301 312 314 316 345 339 328 325 326 326 327 321 325 321 324 327 323 327 329 332 330 333 336 339 346 350 347 349 347 348 347 350 354 351 347 343 336 331 329 4 5 9 5 354 1 358 339 20 18 6 16 49 92 93 109 118 122 121 116 138
356 345 326 300 294 308 324 311 305 298 304 309 315 304 313 312 311 318 320 317 321 323 319 317 322 325 325 322 331 332 330 320 326 336 342 333 337 341 350 351 352 347 346 347 350 351 348 350 347 347 345 348 202 22 26 14 359 359 352 3 18 24 12 16 13 12 35 79 112 96 88 81 94 128
265 286 296 291 298 285 273 282 281 284 293 297 303 300 304 293 301 299 298 310 326 322 324 325 323 321 327 328 329 333 331 327 323 329 335 336 339 347 346 350 350 351 350 352 353 352 352 353 350 352 359 4 358 170 42 30 13 358 356 17 15 14 11 11 17 15 19 25 37 78 70 63 46 18
269 227 252 274 280 291 300 284 282 276 274 281 282 296 311 308 306 305 301 316 322 314 322 325 326 327 328 328 329 328 331 327 327 331 337 346 345 345 350 354 350 350 353 358 354 353 352 352 357 357 1 359 17 19 15 19 23 14 10 358 6 15 7 10 21 26 23 24 19 45 55 39 17 359
265 256 238 256 269 270 273 278 278 280 271 274 281 267 276 291 295 294 292 303 292 302 311 314 318 325 324 326 326 328 330 334 333 336 336 339 340 343 347 350 356 353 352 353 357 358 355 359 357 0 1 13 24 20 11 359 21 27 17 10 6 9 358 8 22 27 23 23 29 33 46 41 17 356
240 249 246 252 257 264 261 264 274 273 270 263 263 283 267 261 275 283 297 297 309 316 320 326 317 323 327 330 331 331 332 330 331 335 338 337 341 344 348 346 345 350 348 353 357 2 357 358 1 357 1 9 8 12 4 360 11 21 22 22 15 1 354 7 23 19 15 15 28 21 29 48 27 359
229 246 245 259 262 253 263 263 253 265 271 272 266 267 283 288 288 291 298 298 301 311 319 320 327 329 324 327 330 328 326 331 340 342 338 340 340 339 342 343 343 349 349 359 357 3 2 6 1 359 4 5 11 5 354 7 16 4 18 26 26 16 14 8 14 16 16 6 1 3 40 5 52 12
233 224 239 238 253 250 250 257 256 250 263 259 259 254 258 275 287 289 291 299 307 311 303 302 310 320 326 331 333 328 325 332 332 334 340 335 335 336 340 338 344 346 344 359 1 359 4 2 360 358 358 353 333 320 319 330 15 23 22 24 28 33 24 11 17 4 9 1 346 20 25 21 38 5
219 229 235 215 238 244 247 255 250 258 258 258 260 261 248 246 268 271 275 281 285 301 305 309 315 318 315 320 331 337 327 327 332 336 338 336 335 337 344 342 343 355 354 354 350 354 1 357 345 333 346 341 321 271 357 24 24 17 18 19 21 29 33 34 29 22 10 338 351 28 36 39 30 25
214 235 250 224 225 243 234 251 253 249 257 256 252 257 258 250 249 270 282 283 272 270 268 281 299 309 312 317 325 332 331 326 330 332 334 340 340 336 346 354 351 347 355 352 347 345 330 337 346 4 15 5 9 32 34 27 23 18 14 10 14 24 32 34 35 34 34 27 7 6 4 7 22 30
241 235 250 250 227 235 237 238 247 244 257 258 253 247 254 266 266 273 275 279 281 277 276 281 284 294 298 309 319 324 323 327 330 325 327 334 340 342 336 341 342 336 342 339 332 333 343 347 357 359 7 18 21 31 30 21 22 20 21 22 16 16 24 33 38 38 33 35 40 46 40 37 41 45
239 237 241 245 245 242 237 233 244 241 246 251 255 256 245 255 270 263 251 265 273 276 273 275 278 284 295 304 312 308 319 324 324 324 327 330 331 334 335 330 331 336 342 350 341 351 344 353 1 357 18 22 14 26 24 20 22 19 21 14 16 23 20 9 26 34 39 37 35 38 47 55 62 67
243 232 239 241 238 241 245 237 239 246 242 250 250 250 249 248 249 263 261 249 253 257 259 259 268 266 264 281 312 319 317 319 318 317 317 326 333 332 339 339 336 335 351 355 345 346 352 351 355 359 18 19 19 20 19 26 21 18 17 19 19 15 19 15 30 36 36 35 34 39 43 48 53 57